﻿測定場所 (Monitoring sites),日付 (Measurement date),時間 (Measurement time),線量率 最大値 (max) μGy/h,線量率 最小値 (min) μGy/h,線量率 平均値 (average) μGy/h,
江戸川 (Edogawa),2022-09-25,23:01～24:00,0.0423,0.0364,0.0393,
江戸川 (Edogawa),2022-09-25,22:01～23:00,0.0440,0.0372,0.0400,
江戸川 (Edogawa),2022-09-25,21:01～22:00,0.0433,0.0368,0.0399,
江戸川 (Edogawa),2022-09-25,20:01～21:00,0.0421,0.0364,0.0397,
江戸川 (Edogawa),2022-09-25,19:01～20:00,0.0436,0.0368,0.0395,
江戸川 (Edogawa),2022-09-25,18:01～19:00,0.0424,0.0367,0.0394,
江戸川 (Edogawa),2022-09-25,17:01～18:00,0.0425,0.0363,0.0389,
江戸川 (Edogawa),2022-09-25,16:01～17:00,0.0420,0.0353,0.0385,
江戸川 (Edogawa),2022-09-25,15:01～16:00,0.0417,0.0362,0.0386,
江戸川 (Edogawa),2022-09-25,14:01～15:00,0.0415,0.0364,0.0388,
江戸川 (Edogawa),2022-09-25,13:01～14:00,0.0428,0.0358,0.0390,
江戸川 (Edogawa),2022-09-25,12:01～13:00,0.0432,0.0366,0.0397,
江戸川 (Edogawa),2022-09-25,11:01～12:00,0.0437,0.0368,0.0400,
江戸川 (Edogawa),2022-09-25,10:01～11:00,0.0431,0.0368,0.0395,
江戸川 (Edogawa),2022-09-25,09:01～10:00,0.0431,0.0368,0.0396,
江戸川 (Edogawa),2022-09-25,08:01～09:00,0.0428,0.0364,0.0394,
江戸川 (Edogawa),2022-09-25,07:01～08:00,0.0436,0.0370,0.0399,
江戸川 (Edogawa),2022-09-25,06:01～07:00,0.0428,0.0370,0.0395,
江戸川 (Edogawa),2022-09-25,05:01～06:00,0.0432,0.0367,0.0397,
江戸川 (Edogawa),2022-09-25,04:01～05:00,0.0425,0.0358,0.0394,
江戸川 (Edogawa),2022-09-25,03:01～04:00,0.0423,0.0370,0.0395,
江戸川 (Edogawa),2022-09-25,02:01～03:00,0.0421,0.0367,0.0395,
江戸川 (Edogawa),2022-09-25,01:01～02:00,0.0419,0.0361,0.0391,
江戸川 (Edogawa),2022-09-25,00:01～01:00,0.0444,0.0372,0.0395,
江戸川 (Edogawa),2022-09-24,23:01～24:00,0.0437,0.0367,0.0396,
江戸川 (Edogawa),2022-09-24,22:01～23:00,0.0433,0.0370,0.0403,
江戸川 (Edogawa),2022-09-24,21:01～22:00,0.0488,0.0393,0.0429,
江戸川 (Edogawa),2022-09-24,20:01～21:00,0.0526,0.0430,0.0480,
江戸川 (Edogawa),2022-09-24,19:01～20:00,0.0612,0.0491,0.0531,
江戸川 (Edogawa),2022-09-24,18:01～19:00,0.0682,0.0537,0.0609,
江戸川 (Edogawa),2022-09-24,17:01～18:00,0.0557,0.0371,0.0427,
江戸川 (Edogawa),2022-09-24,16:01～17:00,0.0422,0.0363,0.0390,
江戸川 (Edogawa),2022-09-24,15:01～16:00,0.0431,0.0365,0.0392,
江戸川 (Edogawa),2022-09-24,14:01～15:00,0.0419,0.0370,0.0389,
江戸川 (Edogawa),2022-09-24,13:01～14:00,0.0422,0.0360,0.0384,
江戸川 (Edogawa),2022-09-24,12:01～13:00,0.0408,0.0359,0.0385,
江戸川 (Edogawa),2022-09-24,11:01～12:00,0.0431,0.0359,0.0383,
江戸川 (Edogawa),2022-09-24,10:01～11:00,0.0414,0.0360,0.0384,
江戸川 (Edogawa),2022-09-24,09:01～10:00,0.0447,0.0370,0.0408,
江戸川 (Edogawa),2022-09-24,08:01～09:00,0.0499,0.0400,0.0448,
江戸川 (Edogawa),2022-09-24,07:01～08:00,0.0543,0.0416,0.0481,
江戸川 (Edogawa),2022-09-24,06:01～07:00,0.0467,0.0389,0.0426,
江戸川 (Edogawa),2022-09-24,05:01～06:00,0.0493,0.0408,0.0448,
江戸川 (Edogawa),2022-09-24,04:01～05:00,0.0464,0.0366,0.0413,
江戸川 (Edogawa),2022-09-24,03:01～04:00,0.0443,0.0371,0.0406,
江戸川 (Edogawa),2022-09-24,02:01～03:00,0.0443,0.0347,0.0387,
江戸川 (Edogawa),2022-09-24,01:01～02:00,0.0463,0.0369,0.0409,
江戸川 (Edogawa),2022-09-24,00:01～01:00,0.0424,0.0371,0.0396,
江戸川 (Edogawa),2022-09-23,23:01～24:00,0.0436,0.0367,0.0400,
江戸川 (Edogawa),2022-09-23,22:01～23:00,0.0455,0.0371,0.0409,
江戸川 (Edogawa),2022-09-23,21:01～22:00,0.0441,0.0388,0.0418,
江戸川 (Edogawa),2022-09-23,20:01～21:00,0.0430,0.0361,0.0390,
江戸川 (Edogawa),2022-09-23,19:01～20:00,0.0429,0.0366,0.0397,
江戸川 (Edogawa),2022-09-23,18:01～19:00,0.0438,0.0371,0.0403,
江戸川 (Edogawa),2022-09-23,17:01～18:00,0.0438,0.0376,0.0403,
江戸川 (Edogawa),2022-09-23,16:01～17:00,0.0432,0.0375,0.0404,
江戸川 (Edogawa),2022-09-23,15:01～16:00,0.0424,0.0369,0.0399,
江戸川 (Edogawa),2022-09-23,14:01～15:00,0.0427,0.0363,0.0398,
江戸川 (Edogawa),2022-09-23,13:01～14:00,0.0430,0.0367,0.0399,
江戸川 (Edogawa),2022-09-23,12:01～13:00,0.0424,0.0371,0.0400,
江戸川 (Edogawa),2022-09-23,11:01～12:00,0.0419,0.0356,0.0395,
江戸川 (Edogawa),2022-09-23,10:01～11:00,0.0422,0.0367,0.0397,
江戸川 (Edogawa),2022-09-23,09:01～10:00,0.0438,0.0371,0.0401,
江戸川 (Edogawa),2022-09-23,08:01～09:00,0.0433,0.0372,0.0399,
江戸川 (Edogawa),2022-09-23,07:01～08:00,0.0429,0.0369,0.0401,
江戸川 (Edogawa),2022-09-23,06:01～07:00,0.0429,0.0370,0.0403,
江戸川 (Edogawa),2022-09-23,05:01～06:00,0.0435,0.0365,0.0402,
江戸川 (Edogawa),2022-09-23,04:01～05:00,0.0453,0.0368,0.0403,
江戸川 (Edogawa),2022-09-23,03:01～04:00,0.0436,0.0370,0.0407,
江戸川 (Edogawa),2022-09-23,02:01～03:00,0.0430,0.0379,0.0402,
江戸川 (Edogawa),2022-09-23,01:01～02:00,0.0432,0.0371,0.0403,
江戸川 (Edogawa),2022-09-23,00:01～01:00,0.0441,0.0369,0.0400,
江戸川 (Edogawa),2022-09-22,23:01～24:00,0.0430,0.0365,0.0399,
江戸川 (Edogawa),2022-09-22,22:01～23:00,0.0431,0.0365,0.0395,
江戸川 (Edogawa),2022-09-22,21:01～22:00,0.0423,0.0373,0.0401,
江戸川 (Edogawa),2022-09-22,20:01～21:00,0.0433,0.0380,0.0402,
江戸川 (Edogawa),2022-09-22,19:01～20:00,0.0438,0.0373,0.0403,
江戸川 (Edogawa),2022-09-22,18:01～19:00,0.0434,0.0370,0.0401,
江戸川 (Edogawa),2022-09-22,17:01～18:00,0.0449,0.0384,0.0409,
江戸川 (Edogawa),2022-09-22,16:01～17:00,0.0436,0.0372,0.0406,
江戸川 (Edogawa),2022-09-22,15:01～16:00,0.0440,0.0368,0.0400,
江戸川 (Edogawa),2022-09-22,14:01～15:00,0.0442,0.0369,0.0410,
江戸川 (Edogawa),2022-09-22,13:01～14:00,0.0427,0.0370,0.0398,
江戸川 (Edogawa),2022-09-22,12:01～13:00,0.0442,0.0367,0.0399,
江戸川 (Edogawa),2022-09-22,11:01～12:00,0.0436,0.0364,0.0398,
江戸川 (Edogawa),2022-09-22,10:01～11:00,0.0425,0.0367,0.0400,
江戸川 (Edogawa),2022-09-22,09:01～10:00,0.0431,0.0367,0.0399,
江戸川 (Edogawa),2022-09-22,08:01～09:00,0.0432,0.0369,0.0400,
江戸川 (Edogawa),2022-09-22,07:01～08:00,0.0428,0.0365,0.0399,
江戸川 (Edogawa),2022-09-22,06:01～07:00,0.0435,0.0366,0.0397,
江戸川 (Edogawa),2022-09-22,05:01～06:00,0.0428,0.0369,0.0401,
江戸川 (Edogawa),2022-09-22,04:01～05:00,0.0438,0.0367,0.0402,
江戸川 (Edogawa),2022-09-22,03:01～04:00,0.0421,0.0370,0.0399,
江戸川 (Edogawa),2022-09-22,02:01～03:00,0.0422,0.0368,0.0392,
江戸川 (Edogawa),2022-09-22,01:01～02:00,0.0422,0.0370,0.0394,
江戸川 (Edogawa),2022-09-22,00:01～01:00,0.0423,0.0358,0.0394,
江戸川 (Edogawa),2022-09-21,23:01～24:00,0.0436,0.0369,0.0399,
江戸川 (Edogawa),2022-09-21,22:01～23:00,0.0427,0.0366,0.0395,
江戸川 (Edogawa),2022-09-21,21:01～22:00,0.0417,0.0365,0.0393,
江戸川 (Edogawa),2022-09-21,20:01～21:00,0.0427,0.0368,0.0398,
江戸川 (Edogawa),2022-09-21,19:01～20:00,0.0426,0.0362,0.0395,
江戸川 (Edogawa),2022-09-21,18:01～19:00,0.0418,0.0365,0.0393,
江戸川 (Edogawa),2022-09-21,17:01～18:00,0.0426,0.0364,0.0393,
江戸川 (Edogawa),2022-09-21,16:01～17:00,0.0426,0.0370,0.0396,
江戸川 (Edogawa),2022-09-21,15:01～16:00,0.0430,0.0365,0.0397,
江戸川 (Edogawa),2022-09-21,14:01～15:00,0.0430,0.0369,0.0396,
江戸川 (Edogawa),2022-09-21,13:01～14:00,0.0438,0.0365,0.0398,
江戸川 (Edogawa),2022-09-21,12:01～13:00,0.0434,0.0370,0.0398,
江戸川 (Edogawa),2022-09-21,11:01～12:00,0.0429,0.0366,0.0397,
江戸川 (Edogawa),2022-09-21,10:01～11:00,0.0425,0.0365,0.0395,
江戸川 (Edogawa),2022-09-21,09:01～10:00,0.0431,0.0367,0.0395,
江戸川 (Edogawa),2022-09-21,08:01～09:00,0.0416,0.0364,0.0394,
江戸川 (Edogawa),2022-09-21,07:01～08:00,0.0418,0.0366,0.0395,
江戸川 (Edogawa),2022-09-21,06:01～07:00,0.0441,0.0377,0.0404,
江戸川 (Edogawa),2022-09-21,05:01～06:00,0.0451,0.0373,0.0415,
江戸川 (Edogawa),2022-09-21,04:01～05:00,0.0427,0.0374,0.0397,
江戸川 (Edogawa),2022-09-21,03:01～04:00,0.0438,0.0367,0.0405,
江戸川 (Edogawa),2022-09-21,02:01～03:00,0.0433,0.0379,0.0406,
江戸川 (Edogawa),2022-09-21,01:01～02:00,0.0462,0.0388,0.0422,
江戸川 (Edogawa),2022-09-21,00:01～01:00,0.0531,0.0426,0.0476,
江戸川 (Edogawa),2022-09-20,23:01～24:00,0.0520,0.0443,0.0483,
江戸川 (Edogawa),2022-09-20,22:01～23:00,0.0534,0.0467,0.0503,
江戸川 (Edogawa),2022-09-20,21:01～22:00,0.0549,0.0434,0.0486,
江戸川 (Edogawa),2022-09-20,20:01～21:00,0.0569,0.0489,0.0523,
江戸川 (Edogawa),2022-09-20,19:01～20:00,0.0630,0.0519,0.0569,
江戸川 (Edogawa),2022-09-20,18:01～19:00,0.0596,0.0513,0.0555,
江戸川 (Edogawa),2022-09-20,17:01～18:00,0.0566,0.0411,0.0477,
江戸川 (Edogawa),2022-09-20,16:01～17:00,0.0468,0.0378,0.0427,
江戸川 (Edogawa),2022-09-20,15:01～16:00,0.0572,0.0433,0.0499,
江戸川 (Edogawa),2022-09-20,14:01～15:00,0.0584,0.0478,0.0519,
江戸川 (Edogawa),2022-09-20,13:01～14:00,0.0561,0.0477,0.0512,
江戸川 (Edogawa),2022-09-20,12:01～13:00,0.0589,0.0504,0.0540,
江戸川 (Edogawa),2022-09-20,11:01～12:00,0.0625,0.0553,0.0586,
江戸川 (Edogawa),2022-09-20,10:01～11:00,0.0602,0.0385,0.0456,
江戸川 (Edogawa),2022-09-20,09:01～10:00,0.0450,0.0384,0.0422,
江戸川 (Edogawa),2022-09-20,08:01～09:00,0.0474,0.0370,0.0422,
江戸川 (Edogawa),2022-09-20,07:01～08:00,0.0436,0.0377,0.0406,
江戸川 (Edogawa),2022-09-20,06:01～07:00,0.0473,0.0400,0.0437,
江戸川 (Edogawa),2022-09-20,05:01～06:00,0.0483,0.0401,0.0434,
江戸川 (Edogawa),2022-09-20,04:01～05:00,0.0468,0.0366,0.0421,
江戸川 (Edogawa),2022-09-20,03:01～04:00,0.0429,0.0370,0.0395,
江戸川 (Edogawa),2022-09-20,02:01～03:00,0.0445,0.0369,0.0396,
江戸川 (Edogawa),2022-09-20,01:01～02:00,0.0421,0.0363,0.0397,
江戸川 (Edogawa),2022-09-20,00:01～01:00,0.0431,0.0370,0.0398,
江戸川 (Edogawa),2022-09-19,23:01～24:00,0.0424,0.0365,0.0396,
江戸川 (Edogawa),2022-09-19,22:01～23:00,0.0429,0.0370,0.0399,
江戸川 (Edogawa),2022-09-19,21:01～22:00,0.0428,0.0371,0.0393,
江戸川 (Edogawa),2022-09-19,20:01～21:00,0.0418,0.0369,0.0392,
江戸川 (Edogawa),2022-09-19,19:01～20:00,0.0426,0.0366,0.0399,
江戸川 (Edogawa),2022-09-19,18:01～19:00,0.0432,0.0363,0.0396,
江戸川 (Edogawa),2022-09-19,17:01～18:00,0.0423,0.0366,0.0395,
江戸川 (Edogawa),2022-09-19,16:01～17:00,0.0440,0.0377,0.0402,
江戸川 (Edogawa),2022-09-19,15:01～16:00,0.0429,0.0367,0.0401,
江戸川 (Edogawa),2022-09-19,14:01～15:00,0.0428,0.0369,0.0393,
江戸川 (Edogawa),2022-09-19,13:01～14:00,0.0427,0.0362,0.0393,
江戸川 (Edogawa),2022-09-19,12:01～13:00,0.0426,0.0369,0.0394,
江戸川 (Edogawa),2022-09-19,11:01～12:00,0.0422,0.0370,0.0396,
江戸川 (Edogawa),2022-09-19,10:01～11:00,0.0418,0.0365,0.0392,
江戸川 (Edogawa),2022-09-19,09:01～10:00,0.0424,0.0369,0.0391,
江戸川 (Edogawa),2022-09-19,08:01～09:00,0.0426,0.0368,0.0390,
江戸川 (Edogawa),2022-09-19,07:01～08:00,0.0429,0.0363,0.0393,
江戸川 (Edogawa),2022-09-19,06:01～07:00,0.0419,0.0365,0.0387,
江戸川 (Edogawa),2022-09-19,05:01～06:00,0.0430,0.0365,0.0389,
江戸川 (Edogawa),2022-09-19,04:01～05:00,0.0414,0.0361,0.0388,
江戸川 (Edogawa),2022-09-19,03:01～04:00,0.0423,0.0367,0.0388,
江戸川 (Edogawa),2022-09-19,02:01～03:00,0.0419,0.0366,0.0386,
江戸川 (Edogawa),2022-09-19,01:01～02:00,0.0419,0.0357,0.0387,
江戸川 (Edogawa),2022-09-19,00:01～01:00,0.0418,0.0363,0.0389,
